Regional Weather Roundup
Issued by NWS State College, PA

Home | Current Version | Previous Version | Graphics & Text | Print | Product List | Glossary Off
Versions: 1 2 3 4 5 6 7 8 9 10 11 12 13 14 15 16 17 18 19 20 21 22 23 24 25 26 27 28 29 30 31 32 33 34 35 36 37 38 39 40 41 42 43 44 45 46 47 48 49 50

000
ASUS41 KCTP 210510
RWRCTP

REGIONAL WEATHER ROUNDUP
NATIONAL WEATHER SERVICE STATE COLLEGE PA
1200 AM EST SUN DEC 21 2014

Note: "fair" indicates few or no clouds below 12,000 feet with no
significant weather and/or obstructions to visibility.

* = STATION THAT DOES NOT REPORT PRECIPITATION /E.G. RAIN...SNOW...ETC/
    THUNDER OR FOG.

PAZ002>004-007>009-013>016-020>023-029>032-210600-
WESTERN PENNSYLVANIA

CITY           SKY/WX    TMP DP  RH WIND       PRES   REMARKS
ERIE           CLOUDY    30  21  69 S7        30.27F
MEADVILLE      CLOUDY    27  21  78 CALM      30.23F
FRANKLIN*      CLOUDY    27  19  74 CALM      30.24F
NEW CASTLE       N/A     28  24  85 CALM      30.27F
BEAVER COUNTY  NOT AVBL
BUTLER*        PTCLDY    25  21  86 CALM      30.26S
PITTSBURGH INT CLOUDY    28  22  78 CALM      30.25S
PITTSBURGH     CLOUDY    28  17  63 CALM      30.24S
INDIANA*       CLOUDY    27  23  86 CALM      30.27S
LATROBE        CLOUDY    27  25  93 CALM      30.27S
WASHINGTON CO* NOT AVBL
$$

PAZ004>006-010>012-017>019-024>028-033>037-041-042-045-046-049>053-210600-
CENTRAL PENNSYLVANIA

CITY           SKY/WX    TMP DP  RH WIND       PRES   REMARKS
BRADFORD       CLOUDY    23  19  85 W3        30.19S
DUBOIS         CLOUDY    25  20  81 CALM      30.19F
CLEARFIELD     CLOUDY    26  20  77 CALM      30.23S
JOHNSTOWN      CLOUDY    24  18  77 CALM      30.17S
ALTOONA        CLOUDY    25  21  85 CALM      30.23R
STATE COLLEGE  CLOUDY    27  22  81 CALM      30.24S
WILLIAMSPORT   CLOUDY    32  20  61 W5        30.26F
SELINSGROVE    CLOUDY    32  23  69 NW3       30.28F
FT INDIANTOWN  CLOUDY    29  22  74 SE1       30.27F
CAPITAL CITY   CLOUDY    28  21  75 W3        30.29F
HARRISBURG     PTCLDY    28  21  75 NW5       30.29S
YORK           CLOUDY    28  24  85 CALM      30.28S
$$

PAZ038>040-043-044-047-048-054-055-060>062-067>071-210600-
EASTERN PENNSYLVANIA

CITY           SKY/WX    TMP DP  RH WIND       PRES   REMARKS
SCRANTON       CLOUDY    30  20  66 NW3       30.25F
MOUNT POCONO   CLOUDY    24  18  77 NW6       30.18F
ALLENTOWN      CLOUDY    31  21  66 CALM      30.29S
QUAKERTOWN*    CLOUDY    30  23  74 CALM      30.29S
READING        CLOUDY    32  22  66 CALM      30.28F
LANCASTER      CLOUDY    28  22  78 W3        30.28F
COATESVILLE    CLOUDY    32  25  74 CALM      30.27F
POTTSTOWN      CLOUDY    32  22  66 CALM      30.30F
BLUE BELL      CLOUDY    32  27  80 CALM      30.28F
DOYLESTOWN     CLOUDY    29  22  75 CALM      30.28S
WILLOW GROVE   NOT AVBL
NORTH PHILA    CLOUDY    34  20  56 CALM      30.31F
PHILADELPHIA   CLOUDY    34  23  64 S3        30.31F
$$


USA.gov is the U.S. government's official web portal to all federal, state and local government web resources and services.